Location: Unspecified
(0.0000°N, 0.0000°E)
Time: 23:44:02
(UTC+00:00)

Transit 4A - Pass Details

Date: 19 December 2018
Orbit: 868 x 977 km, 66.8° (Epoch: 18 January)

Event Time Altitude Azimuth Distance (km) Brightness Sun altitude
Rises 00:45:06 0° 195° (SSW) 3,501 - -63.8°
Reaches altitude 10° 00:47:38 10° 192° (SSW) 2,546 - -63.5°
Maximum altitude 00:53:28 68° 109° (ESE) 935 - -62.9°
Drops below altitude 10° 00:59:11 10° 27° (NNE) 2,501 - -62.1°
Sets 01:01:39 0° 25° (NNE) 3,435 - -61.8°
